Back to catalog

COSMOS 940

AliveNavigationLEO
NORAD 10286·PAYLOAD·🇷🇺 Russia

Launched Aug 24, 1977 from Plesetsk Cosmodrome

Loading…

Next Passes (next 24 hours)

TLE

FreshSource: Space-Track

Epoch: Sep 14, 2026, 13:16 UTC

1 10286U 77079B   26257.55326050  .00000011  00000-0  15911-3 0  9997
2 10286  74.0264 167.4681 0042939  80.0818  94.6396 12.58904515223427

Track COSMOS 940 in real time with AllMySat

Download on the App Store